Terminal Aerodrome Forecast
Issued by NWS

Home | Current Version | Previous Version | Text Only | Print | Product List | Glossary On
Versions: 1 2 3 4 5 6 7 8 9 10 11 12 13 14 15 16 17 18 19 20 21 22 23 24 25 26 27
000
FTUS46 KPDT 181100
TAFDLS
TAF
KDLS 181123Z 1812/1912 00000KT P6SM FEW009 OVC100
      TEMPO 1812/1814 3SM BR OVC009
     FM181500 00000KT 3SM BR SCT009 OVC012
     FM182000 VRB03KT P6SM OVC035
     FM182300 VRB03KT P6SM -RA OVC035
     FM190600 00000KT 4SM -RA BR OVC025=

USA.gov is the U.S. government's official web portal to all federal, state and local government web resources and services.